Regional Weather Roundup
Issued by NWS

Home | Current Version | Previous Version | Text Only | Print | Product List | Glossary On
Versions: 1 2 3 4 5 6 7 8 9 10 11 12 13 14 15 16 17 18 19 20 21 22 23 24 25 26 27 28 29 30 31 32 33 34 35 36 37 38 39 40 41 42 43 44 45 46 47 48 49 50
000
ASUS44 KBMX 290710
RWRAL

ALABAMA REGIONAL WEATHER ROUNDUP
NATIONAL WEATHER SERVICE BIRMINGHAM AL
100 AM CST SAT NOV 29 2014

NOTE: "FAIR" INDICATES FEW OR NO CLOUDS BELOW 12,000 FEET
WITH NO SIGNIFICANT WEATHER AND/OR OBSTRUCTIONS TO VISIBILITY.

THE REMARK "TC" DENOTES TEMPERATURE IN DEGREES CELSIUS.

ALZ001>011-014-016>018-020-290800-
NORTH ALABAMA

CITY           SKY/WX    TMP DP  RH WIND       PRES   REMARKS
MUSCLE SHOALS  CLEAR     44  24  45 S8        30.17F
HUNTSVILLE     CLEAR     38  23  55 E6        30.19F WCI  33
DECATUR        CLEAR     36  24  62 SE6       30.19F WCI  31
HALEYVILLE     FAIR      40  25  55 S9        30.19F WCI  34
GADSDEN        CLEAR     27  21  80 CALM      30.24S
$$

ALZ012-013-022-023-030>036-040>044-290800-
WEST CENTRAL ALABAMA

CITY           SKY/WX    TMP DP  RH WIND       PRES   REMARKS
TUSCALOOSA     CLEAR     32  29  88 CALM      30.23F
$$

ALZ015-024>027-033>036-040>044-290800-
CENTRAL ALABAMA

CITY           SKY/WX    TMP DP  RH WIND       PRES   REMARKS
BIRMINGHAM     CLEAR     44  20  38 S6        30.23F
MONTGOMERY     CLEAR     34  24  67 CALM      30.27F
SHELBY CO ARPT CLEAR     35  26  69 CALM      30.23F
MAXWELL AFB    CLEAR     33  31  92 CALM      30.26F
GREENVILLE     FAIR      37  28  70 CALM      30.25F
$$

ALZ019-021-028-029-037-038-045>048-290800-
EAST CENTRAL ALABAMA

CITY           SKY/WX    TMP DP  RH WIND       PRES   REMARKS
ANNISTON       CLEAR     31  26  82 CALM      30.24F
ALEXANDER CITY CLEAR     32  27  83 CALM      30.25F
AUBURN         CLEAR     37  21  52 S5        30.28F WCI  34
$$

ALZ051>064-290800-
SOUTHWEST ALABAMA

CITY           SKY/WX    TMP DP  RH WIND       PRES   REMARKS
MOBILE         CLEAR     38  36  92 CALM      30.26F
BROOKLEY FIELD CLEAR     38  37  97 NW3       30.28S FOG
EVERGREEN      CLEAR     32  30  92 CALM      30.27F
$$

ALZ049-050-065>069-290800-
SOUTHEAST ALABAMA

CITY           SKY/WX    TMP DP  RH WIND       PRES   REMARKS
DOTHAN         CLEAR     37  32  82 CALM      30.32S
OZARK          CLEAR     35  31  84 NE2       30.29S
TROY           CLEAR     30  27  88 CALM      30.28S
EUFAULA        FAIR      32  29  88 CALM      30.28F
$$



USA.gov is the U.S. government's official web portal to all federal, state and local government web resources and services.